Regional Weather Roundup
Issued by NWS

Home | Current Version | Previous Version | Graphics & Text | Print | Product List | Glossary On
Versions: 1 2 3 4 5 6 7 8 9 10 11 12 13 14 15 16 17 18 19 20 21 22 23 24 25 26 27 28 29 30 31 32 33 34 35 36 37 38 39 40 41 42 43 44 45 46 47 48 49 50
000
ASUS45 KPSR 042110
RWRAZ

ARIZONA HOURLY REGIONAL WEATHER ROUNDUP
NATIONAL WEATHER SERVICE PHOENIX AZ
200 PM MST TUE AUG 04 2015

NOTE: FAIR INDICATES FEW OR NO CLOUDS BELOW 12,000 FEET WITH NO
SIGNIFICANT WEATHER AND/OR OBSTRUCTIONS TO VISIBILITY.

AZZ001>003-036-042200-
NORTHWEST ARIZONA

CITY           SKY/WX    TMP DP  RH WIND       PRES   REMARKS
KINGMAN        SUNNY     99  34  10 SW22G30   30.03F
$$

AZZ004>008-015-016-018-042200-
NORTH CENTRAL ARIZONA

CITY           SKY/WX    TMP DP  RH WIND       PRES   REMARKS
GRAND CANYON   SUNNY     86  32  14 SW17      30.28F
WILLIAMS       SUNNY     84  32  15 SW14G24   30.35S
PRESCOTT       SUNNY     91  30  11 S10G21    30.16F
FLAGSTAFF      SUNNY     81  35  19 S17G25    30.32F
PAYSON         SUNNY     90  39  17 W12       30.19F
PAGE           SUNNY     97  39  13 NE8G18    30.05F
$$

AZZ009>014-017-042200-
NORTHEAST ARIZONA

CITY           SKY/WX    TMP DP  RH WIND       PRES   REMARKS
WINSLOW        MOSUNNY   96  39  13 W10       30.13F
SAINT JOHNS    MOSUNNY   88  43  20 VRB5      30.19F
SHOW LOW       MOSUNNY   84  37  18 W14G21    30.28S
$$

AZZ023-042200-
GREATER PHOENIX AREA

CITY           SKY/WX    TMP DP  RH WIND       PRES   REMARKS
PHOENIX        MOSUNNY  109  46  12 S10       29.83F HX 105
BUCKEYE          N/A    108  37   9 S8        29.84F HX 101
GLENDALE       MOSUNNY  109  36   8 SE10      29.85F HX 102
LUKE AFB       SUNNY    107  38   9 S9        29.82F HX 101
DEER VALLEY    SUNNY    105  39  10 W12G17    29.86F
SCOTTSDALE     SUNNY    106  42  11 W8        29.88F HX 101
MESA-GATEWAY   SUNNY    106  50  15 W6        29.88F HX 103
CHANDLER       MOSUNNY  106  48  14 SW13      29.86F HX 102
$$

AZZ027-028-042200-
SOUTHWEST MARICOPA COUNTY AND PINAL COUNTY

CITY           SKY/WX    TMP DP  RH WIND       PRES   REMARKS
CASA GRANDE    SUNNY    106  52  16 W9G16     29.86F HX 103
GILA BEND      SUNNY    108  38   9 VRB2      29.82F HX 102
$$

AZZ503-504-507>509-042200-
SOUTHEAST ARIZONA

CITY           SKY/WX    TMP DP  RH WIND       PRES   REMARKS
TUCSON         SUNNY    103  47  15 CALM      29.97F
DAVIS-MONTHAN  SUNNY    102  48  16 VRB5      29.96F
RYAN FIELD     SUNNY    106  48  14 NW9       29.96F HX 102
NOGALES        MOSUNNY   98  51  20 VRB3      30.08F
SIERRA VISTA   MOSUNNY   93  46  19 NW6       30.15F
DOUGLAS        SUNNY     95  53  24 VRB3      30.07F
SAFFORD        MOSUNNY  104  43  12 SW12G20   29.96F
$$

AZZ020-021-025-026-031-042200-
SOUTHWEST ARIZONA

CITY           SKY/WX    TMP DP  RH WIND       PRES   REMARKS
YUMA           SUNNY    107  57  19 SW8       29.78F HX 107
$$

CAZ031-033-041-043-047-048-061-042200-
SOUTHERN CALIFORNIA

CITY           SKY/WX    TMP DP  RH WIND       PRES   REMARKS
DOWNTOWN L.A.  SUNNY     83  63  50 W7        29.91S
L.A. AIRPORT   MOSUNNY   77  63  61 W17       29.94S
SAN DIEGO      SUNNY     81  64  56 NW9       29.92F
BURBANK        SUNNY     90  58  33 S12G17    29.92S
ONTARIO        MOSUNNY   95  53  24 W13G18    29.92F
RIVERSIDE      SUNNY     95  51  22 VRB7      29.91F
PALM SPRINGS   SUNNY    110  31   6 VRB6      29.79F HX 102
EL CENTRO NAS  MOSUNNY  109  30   6 VRB3      29.77F HX 101
IMPERIAL       SUNNY    108  37   9 E5        29.75F HX 101
BLYTHE         SUNNY    109  46  12 SE14G22   29.78F HX 105
NEEDLES        SUNNY    111  34   7 SW10G21   29.80F HX 104
$$

NVZ020-UTZ003-042200-
SOUTHERN NEVADA-UTAH

CITY           SKY/WX    TMP DP  RH WIND       PRES   REMARKS
LAS VEGAS      NOT AVBL
SALT LAKE CITY MOSUNNY   87  48  25 NE6       30.05F
$$

NMZ009-TXZ055-042200-
NEW MEXICO-WEST TEXAS

CITY           SKY/WX    TMP DP  RH WIND       PRES   REMARKS
ALBUQUERQUE    MOSUNNY   92  46  20 CALM      30.15F
EL PASO        MOSUNNY   96  54  24 CALM      30.04F
$$


........................KEY........................
SKY/WX - SKY CONDITION/WEATHER
TMP    - TEMPERATURE IN FAHRENHEIT
DP     - DEW POINT IN FAHRENHEIT
RH     - RELATIVE HUMIDITY IN PERCENT
WIND   - DIRECTION AND SPEED IN MILES PER HOUR (MPH)
VRB    - VARIABLE WIND DIRECTION
PRES   - MEAN SEA LEVEL PRESSURE IN INCHES OF MERCURY
         F - FALLING PRESSURE   R - RISING PRESSURE
         S - STEADY PRESSURE
VSB    - VISIBILITY IN MILES
HX     - HEAT INDEX IN FAHRENHEIT
WCI    - WIND CHILL INDEX IN FAHRENHEIT
TC     - TEMPERATURE IN CELSIUS WHICH IS ALSO KNOWN AS
         TEMPERATURE IN CENTIGRADE
AFB    - AIR FORCE BASE
         LUKE AFB IS LUKE AIR FORCE BASE
         DAVIS-MONTHAN IS DAVIS-MONTHAN AIR FORCE BASE
NAS    - NAVAL AIR STATION
         EL CENTRO NAS IS EL CENTRO NAVAL AIR STATION
N/A    - NOT AVAILABLE




USA.gov is the U.S. government's official web portal to all federal, state and local government web resources and services.